Location: Bottom School (historical)
(37.9078°N, 89.3593°W)
Time: 19:44:32
(UTC+00:00)

SL-4 R/B - Pass Details

Date: 08 July 2022
Orbit: 425 x 653 km, 51.6° (Epoch: 16 August)

Event Time Altitude Azimuth Distance (km) Brightness Sun altitude
Rises 07:38:59 0° 311° (NW) 2,476 5.6 -25.5°
Reaches altitude 10° 07:43:08 10° 358° (N) 1,664 5.3 -25.2°
Maximum altitude 07:43:36 10° 5° (N) 1,661 5.4 -25.1°
Drops below altitude 10° 07:44:04 10° 13° (NNE) 1,679 5.5 -25.1°
Sets 07:48:27 0° 58° (ENE) 2,644 6.4 -24.7°
